Tracking 19575 objects as of 19-Feb-2019
HD Live streaming from Space Station
objects crossing your sky now

FLOCK 3R 16

Track FLOCK 3R 16 now!
10-day predictions
FLOCK 3R 16 is classified as:


NORAD ID: 43735
Int'l Code: 2018-096S
Perigee: 475.9 km
Apogee: 507.6 km
Inclination: 97.5 °
Period: 94.3 minutes
Semi major axis: 6862 km
RCS: Unknown
Launch date: November 29, 2018
Source: United States (US)
Launch site: SRIHARIKOTA (SRI)
aabbcc
Your satellite tracking list
Your tracking list is empty




NASA's NSSDC Master Catalog

Two Line Element Set (TLE):
1 43735U 18096S   19049.81413932  .00002132  00000-0  82541-4 0  9992
2 43735  97.4740 119.9657 0023092  44.9392 315.3710 15.27073009 12467
Source of the keplerian elements: AFSPC